Home > Weather > Panipat > Past weeks

Flag for India Past Weather in Panipat, Haryana, India — Yesterday and Last 2 Weeks

Now
81 °F

Thunderstorms. Partly cloudy.


Feels Like: 88 °F
Forecast: 82 / 94 °F
Wind: 8 mph from Northwest

Location: New Delhi Palam Airport

Current Time: Aug 29, 2016 at 4:15:52 AM

Latest Report: Aug 29, 2016 at 3:30 AM


Visibility: 2 mi

Pressure: 29.68 "Hg

Humidity: 94%

Dew Point: 79 °F

Location of PanipatLocation

Past Weather in Panipat — Graph

°F

Panipat Temperature Yesterday

Maximum temperature yesterday: 95 °F (at 12:00 PM)
Minimum temperature yesterday: 84 °F (at 2:00 AM)
Average temperature yesterday: 88 °F

High & Low Weather Summary for the Past Weeks

 TemperatureHumidityPressure
High95 °F (Aug 15, 3:30 PM)100% (Aug 25, 5:00 AM)29.80 "Hg (Aug 25, 5:00 AM)
Low79 °F (Aug 14, 8:00 AM)53% (Aug 22, 2:00 PM)29.42 "Hg (Aug 16, 6:00 PM)
Average86 °F76%29.61 "Hg
* Reported Aug 14 2:30 AM — Aug 29 3:00 AM, Panipat, Weather by CustomWeather, © 2016

Note: Actual official high and low records may vary slightly from our data, if they occured in-between our weather recording intervals... More about our weather records

Advertising

Panipat Weather History for the Previous 24 Hours

Scroll right to see more
 ConditionsComfort  
Time TempWeatherWind HumidityBarometerVisibility
3:00 AM
Mon, Aug 29
82 °FThunderstorms. Partly cloudy.9 mph89%29.71 "Hg1 mi
2:30 AM82 °FThunderstorms. Partly cloudy.8 mph89%29.71 "Hg1 mi
2:00 AM84 °FThunderstorms. Partly cloudy.5 mph84%29.71 "Hg2 mi
1:30 AM84 °FThunderstorms. Partly cloudy.3 mph84%29.71 "Hg2 mi
12:00 AM84 °FFog.No wind84%29.74 "Hg2 mi
11:30 PM
Sun, Aug 28
84 °FFog.No wind84%29.74 "Hg2 mi
11:00 PM84 °FFog.No wind84%29.74 "Hg2 mi
10:00 PM84 °FFog.3 mph84%29.74 "Hg2 mi
9:30 PM84 °FFog.5 mph84%29.74 "Hg2 mi
9:00 PM84 °FFog.5 mph84%29.71 "Hg2 mi
8:30 PM84 °FFog.5 mph84%29.71 "Hg2 mi
8:00 PM86 °FFog.3 mph79%29.71 "Hg2 mi
7:30 PM84 °FFog.7 mph84%29.71 "Hg2 mi
7:00 PM84 °FFog.7 mph84%29.68 "Hg2 mi
6:30 PM88 °FScattered clouds.6 mph70%29.68 "Hg2 mi
6:00 PM88 °FScattered clouds.7 mph70%29.68 "Hg2 mi
5:30 PM90 °FScattered clouds.9 mph67%29.65 "Hg2 mi
5:00 PM91 °FScattered clouds.9 mph63%29.65 "Hg2 mi
4:30 PM93 °FScattered clouds.8 mph59%29.68 "Hg2 mi
4:00 PM93 °FScattered clouds.9 mph59%29.68 "Hg2 mi
3:30 PM95 °FScattered clouds.9 mph56%29.68 "Hg2 mi
3:00 PM95 °FScattered clouds.9 mph56%29.68 "Hg2 mi
2:30 PM95 °FScattered clouds.9 mph56%29.71 "Hg2 mi
2:00 PM95 °FScattered clouds.10 mph56%29.71 "Hg2 mi
1:30 PM95 °FScattered clouds.10 mph56%29.74 "Hg2 mi
1:00 PM95 °FScattered clouds.9 mph56%29.74 "Hg2 mi
12:30 PM95 °FScattered clouds.8 mph56%29.77 "Hg2 mi
12:00 PM95 °FScattered clouds.9 mph56%29.77 "Hg2 mi
11:30 AM93 °FScattered clouds.10 mph59%29.80 "Hg2 mi
11:00 AM93 °FScattered clouds.9 mph63%29.80 "Hg2 mi
10:30 AM91 °FScattered clouds.8 mph71%29.80 "Hg2 mi
10:00 AM91 °FScattered clouds.10 mph71%29.80 "Hg2 mi
9:30 AM90 °FScattered clouds.8 mph75%29.80 "Hg2 mi
9:00 AM88 °FFog.9 mph79%29.80 "Hg1 mi
8:30 AM88 °FFog.8 mph79%29.80 "Hg1 mi
8:00 AM88 °FFog.7 mph79%29.80 "Hg1 mi
7:30 AM86 °FFog.5 mph79%29.77 "Hg1 mi
7:00 AM84 °FFog.5 mph84%29.77 "Hg2 mi
6:30 AM84 °FFog.6 mph84%29.77 "Hg2 mi
6:00 AM84 °FFog.3 mph84%29.77 "Hg2 mi
5:30 AM84 °FFog.5 mph84%29.74 "Hg2 mi
5:00 AM84 °FFog.5 mph84%29.74 "Hg2 mi
4:30 AM84 °FFog.5 mph84%29.74 "Hg2 mi
4:00 AM84 °FFog.5 mph84%29.74 "Hg2 mi
Weather by CustomWeather, © 2016

See weather overviewHow to use our weather pages